Find Starlink 31285

NORAD ID: 59244 Int'l Des: 2024-049 Owner: SPXS Country: US Constellation: starlink operational
LEOCIRCULAR

現在のビュー

3D地球を読み込み中...

About Starlink 31285

Starlink 31285 (NORAD 59244) is a starlink constellation satellite (v2 mini) launched Mar 16, 2024 by SPXS of US. It operates in LEO, CIRCULAR orbit with a mass of 730.00 kg.

次回通過

Passes for default location (London). Set your location on the main map for personalized predictions.

高度履歴

Loading altitude history...

軌道要素

1 59244U 24049P 26258.40338998 .00000385 00000-0 23497-4 0 9995
2 59244 43.0018 151.8459 0000968 269.0238 91.0503 15.27577590141415
Epoch: Sep 15, 2026 • Age: 12 hours

現在のステータス

高度 493.8 km
遠地点 / 近地点 N/A
速度 7.62 km/s
衛星直下点 -38.23°S, 127.63°E
打ち上げ日 Mar 16, 2024
運用期間 2.4 years
タイプ internet

技術仕様

分類 Payload
質量 730.00 kg
乾燥質量 700.00 kg
長さ 0.30 m
スパン 29.00 m
形状 ? Box + pan
製造者 SPXS
バスタイプ Starlink V2M
フェーズステータス In Orbit
所有者/国 SPXS/US

Most Searched